Вернуться в каталог

SL-14 R/B

АктивенPO
NORAD 25369·ROCKET BODY·🇷🇺 Russia

Запущен Jun 15, 1998 с Plesetsk Cosmodrome

Loading…

Ближайшие Пролёты (ближайшие 24 часа)

TLE

СвежийSource: Space-Track

Эпоха: Sep 14, 2026, 14:48 UTC

1 25369U 98036G   26257.61682942  .00000062  00000-0  47090-3 0  9992
2 25369  82.5964  12.4943 0342965 307.5925  60.5154 12.14698289252420

Отслеживайте SL-14 R/B в реальном времени с AllMySat

Download on the App Store